| time (UTC) | temp F | wind direction | speed MPH | gust MPH | rain 1hr in | rain 24hr in | rain mn in | humidity % | barometer mb |
| 20260507181508 | 89 | 280 | 0.0 | 3.0 | 0.00 | 0.00 | 0.00 | 13 | 1010.0 |
| 20260507180005 | 87 | 273 | 1.0 | 7.0 | 0.00 | 0.00 | 0.00 | 13 | 1010.3 |
| 20260507174504 | 87 | 271 | 1.0 | 5.0 | 0.00 | 0.00 | 0.00 | 14 | 1010.4 |
| 20260507173001 | 86 | 219 | 0.0 | 4.0 | 0.00 | 0.00 | 0.00 | 16 | 1010.6 |
| 20260507171611 | 86 | 210 | 0.0 | 5.0 | 0.00 | 0.00 | 0.00 | 17 | 1010.7 |
| 20260507170056 | 85 | 126 | 1.0 | 6.0 | 0.00 | 0.00 | 0.00 | 17 | 1010.7 |
| 20260507164604 | 84 | 143 | 2.0 | 5.0 | 0.00 | 0.00 | 0.00 | 18 | 1011.0 |
| 20260507163051 | 83 | 217 | 1.0 | 4.0 | 0.00 | 0.00 | 0.00 | 20 | 1011.0 |
| 20260507161550 | 82 | 280 | 0.0 | 5.0 | 0.00 | 0.00 | 0.00 | 19 | 1011.1 |
| 20260507160050 | 82 | 219 | 0.0 | 4.0 | 0.00 | 0.00 | 0.00 | 20 | 1011.4 |
| 20260507154547 | 81 | 77 | 0.0 | 4.0 | 0.00 | 0.00 | 0.00 | 19 | 1011.4 |
| 20260507153049 | 79 | 120 | 0.0 | 5.0 | 0.00 | 0.00 | 0.00 | 21 | 1011.4 |
| 20260507151545 | 78 | 68 | 0.0 | 4.0 | 0.00 | 0.00 | 0.00 | 22 | 1011.4 |
| 20260507150043 | 76 | 330 | 2.0 | 7.0 | 0.00 | 0.00 | 0.00 | 23 | 1011.4 |
| 20260507144542 | 75 | 31 | 2.0 | 8.0 | 0.00 | 0.00 | 0.00 | 24 | 1011.4 |
| 20260507143045 | 73 | 14 | 1.0 | 6.0 | 0.00 | 0.00 | 0.00 | 28 | 1011.5 |
| 20260507141511 | 72 | 86 | 1.0 | 5.0 | 0.00 | 0.00 | 0.00 | 28 | 1011.4 |
| 20260507140015 | 71 | 34 | 1.0 | 6.0 | 0.00 | 0.00 | 0.00 | 29 | 1011.3 |
| 20260507134548 | 69 | 82 | 2.0 | 8.0 | 0.00 | 0.00 | 0.00 | 30 | 1011.1 |
| 20260507133039 | 68 | 53 | 3.0 | 8.0 | 0.00 | 0.00 | 0.00 | 31 | 1011.1 |
| 20260507131539 | 68 | 8 | 3.0 | 9.0 | 0.00 | 0.00 | 0.00 | 31 | 1010.9 |
| 20260507130033 | 0 | 0.0 | 0.0 | 0.00 | 0.00 | 0.00 | 1010.9 | ||
| 20260507124528 | 0 | 0.0 | 0.0 | 0.00 | 0.00 | 0.00 | 1010.9 | ||
| 20260507123024 | 0 | 0.0 | 0.0 | 0.00 | 0.00 | 0.00 | 1010.9 | ||
| 20260507121516 | 0 | 0.0 | 0.0 | 0.00 | 0.00 | 0.00 | 1010.9 | ||
| 20260507120015 | 0 | 0.0 | 0.0 | 0.00 | 0.00 | 0.00 | 1010.8 | ||
| 20260507114513 | 0 | 0.0 | 0.0 | 0.00 | 0.00 | 0.00 | 1010.9 | ||
| 20260507113006 | 66 | 39 | 0.0 | 4.0 | 0.00 | 0.00 | 0.00 | 33 | 1010.9 |
| 20260507111510 | 66 | 71 | 1.0 | 4.0 | 0.00 | 0.00 | 0.00 | 32 | 1010.9 |
| 20260507110003 | 66 | 76 | 1.0 | 4.0 | 0.00 | 0.00 | 0.00 | 32 | 1011.1 |
| 20260507104506 | 67 | 86 | 2.0 | 6.0 | 0.00 | 0.00 | 0.00 | 31 | 1011.2 |
| 20260507103100 | 67 | 61 | 1.0 | 5.0 | 0.00 | 0.00 | 0.00 | 31 | 1011.2 |
| 20260507101536 | 66 | 60 | 0.0 | 3.0 | 0.00 | 0.00 | 0.00 | 32 | 1011.4 |
| 20260507100033 | 67 | 56 | 0.0 | 2.0 | 0.00 | 0.00 | 0.00 | 32 | 1011.5 |
| 20260507094610 | 68 | 49 | 0.0 | 3.0 | 0.00 | 0.00 | 0.00 | 31 | 1011.6 |
| 20260507093101 | 68 | 47 | 1.0 | 4.0 | 0.00 | 0.00 | 0.00 | 31 | 1011.7 |
| 20260507091626 | 68 | 38 | 0.0 | 3.0 | 0.00 | 0.00 | 0.00 | 31 | 1011.7 |
| 20260507090105 | 68 | 33 | 0.0 | 3.0 | 0.00 | 0.00 | 0.00 | 32 | 1011.9 |
| 20260507084556 | 68 | 49 | 0.0 | 1.0 | 0.00 | 0.00 | 0.00 | 31 | 1011.9 |
| 20260507083052 | 68 | 41 | 0.0 | 3.0 | 0.00 | 0.00 | 0.00 | 30 | 1011.9 |
| 20260507081549 | 69 | 70 | 0.0 | 4.0 | 0.00 | 0.00 | 0.00 | 30 | 1012.0 |
| 20260507080049 | 69 | 66 | 0.0 | 9.0 | 0.00 | 0.00 | 0.00 | 29 | 1012.1 |
| 20260507074548 | 69 | 120 | 1.0 | 3.0 | 0.00 | 0.00 | 0.00 | 30 | 1012.1 |
| 20260507073048 | 69 | 65 | 1.0 | 4.0 | 0.00 | 0.00 | 0.00 | 31 | 1012.1 |
| 20260507071517 | 68 | 34 | 0.0 | 3.0 | 0.00 | 0.00 | 0.00 | 33 | 1012.0 |
| 20260507070018 | 66 | 268 | 0.0 | 0.0 | 0.00 | 0.00 | 0.00 | 36 | 1012.0 |
| 20260507064547 | 65 | 268 | 0.0 | 0.0 | 0.00 | 0.00 | 0.00 | 37 | 1012.0 |
| 20260507063045 | 66 | 268 | 0.0 | 0.0 | 0.00 | 0.00 | 0.00 | 35 | 1012.0 |
| 20260507061540 | 67 | 268 | 0.0 | 0.0 | 0.00 | 0.00 | 0.00 | 35 | 1011.8 |
| 20260507060051 | 67 | 268 | 0.0 | 0.0 | 0.00 | 0.00 | 0.00 | 35 | 1011.9 |
| 20260507054538 | 67 | 268 | 0.0 | 0.0 | 0.00 | 0.00 | 0.00 | 35 | 1011.9 |
| 20260507053040 | 68 | 268 | 0.0 | 0.0 | 0.00 | 0.00 | 0.00 | 34 | 1011.9 |
| 20260507051539 | 69 | 267 | 0.0 | 0.0 | 0.00 | 0.00 | 0.00 | 33 | 1011.9 |
| 20260507050103 | 70 | 268 | 0.0 | 0.0 | 0.00 | 0.00 | 0.00 | 32 | 1011.8 |
| 20260507050002 | 70 | 268 | 0.0 | 0.0 | 0.00 | 0.00 | 0.00 | 31 | 1011.8 |
| 20260507044602 | 71 | 268 | 0.0 | 0.0 | 0.00 | 0.00 | 0.00 | 30 | 1011.7 |
| 20260507043100 | 70 | 268 | 0.0 | 0.0 | 0.00 | 0.00 | 0.00 | 30 | 1011.6 |
| 20260507041553 | 72 | 268 | 0.0 | 0.0 | 0.00 | 0.00 | 0.00 | 28 | 1011.4 |
| 20260507040051 | 72 | 268 | 0.0 | 0.0 | 0.00 | 0.00 | 0.00 | 27 | 1011.2 |
| 20260507034557 | 73 | 268 | 0.0 | 0.0 | 0.00 | 0.00 | 0.00 | 27 | 1011.0 |
| 20260507033045 | 75 | 268 | 0.0 | 0.0 | 0.00 | 0.00 | 0.00 | 26 | 1010.8 |
| 20260507031537 | 75 | 268 | 0.0 | 0.0 | 0.00 | 0.00 | 0.00 | 25 | 1010.6 |
| 20260507030036 | 76 | 268 | 0.0 | 1.0 | 0.00 | 0.00 | 0.00 | 24 | 1010.4 |
| 20260507024549 | 77 | 279 | 0.0 | 1.0 | 0.00 | 0.00 | 0.00 | 23 | 1010.3 |
| 20260507023031 | 78 | 285 | 0.0 | 3.0 | 0.00 | 0.00 | 0.00 | 23 | 1010.1 |
| 20260507021535 | 79 | 267 | 0.0 | 5.0 | 0.00 | 0.00 | 0.00 | 22 | 1010.0 |
| 20260507020030 | 80 | 268 | 1.0 | 4.0 | 0.00 | 0.00 | 0.00 | 20 | 1009.9 |
| 20260507014538 | 82 | 235 | 1.0 | 5.0 | 0.00 | 0.00 | 0.00 | 20 | 1009.9 |
| 20260507013027 | 82 | 240 | 2.0 | 6.0 | 0.00 | 0.00 | 0.00 | 19 | 1009.9 |
| 20260507011537 | 83 | 290 | 2.0 | 6.0 | 0.00 | 0.00 | 0.00 | 19 | 1009.9 |
| 20260507010024 | 84 | 243 | 1.0 | 5.0 | 0.00 | 0.00 | 0.00 | 20 | 1009.9 |
| 20260507004523 | 85 | 276 | 0.0 | 3.0 | 0.00 | 0.00 | 0.00 | 20 | 1009.8 |
| 20260507003053 | 84 | 278 | 1.0 | 6.0 | 0.00 | 0.00 | 0.00 | 21 | 1009.8 |
| 20260507001558 | 84 | 293 | 1.0 | 5.0 | 0.00 | 0.00 | 0.00 | 21 | 1009.8 |
| 20260507000051 | 84 | 269 | 0.0 | 4.0 | 0.00 | 0.00 | 0.00 | 20 | 1009.8 |
| 20260506234548 | 84 | 286 | 0.0 | 8.0 | 0.00 | 0.00 | 0.00 | 21 | 1009.8 |
| 20260506233057 | 85 | 92 | 1.0 | 6.0 | 0.00 | 0.00 | 0.00 | 19 | 1010.0 |
| 20260506231543 | 85 | 282 | 0.0 | 6.0 | 0.00 | 0.00 | 0.00 | 20 | 1010.1 |
| 20260506230043 | 84 | 281 | 2.0 | 6.0 | 0.00 | 0.00 | 0.00 | 20 | 1010.3 |
| 20260506224535 | 84 | 39 | 1.0 | 5.0 | 0.00 | 0.00 | 0.00 | 19 | 1010.4 |
| 20260506223031 | 83 | 236 | 0.0 | 4.0 | 0.00 | 0.00 | 0.00 | 21 | 1010.7 |
| 20260506221529 | 83 | 244 | 1.0 | 7.0 | 0.00 | 0.00 | 0.00 | 22 | 1010.9 |
| 20260506220023 | 83 | 271 | 0.0 | 2.0 | 0.00 | 0.00 | 0.00 | 23 | 1011.1 |
| 20260506214520 | 82 | 266 | 1.0 | 6.0 | 0.00 | 0.00 | 0.00 | 22 | 1011.3 |
| 20260506213018 | 82 | 265 | 0.0 | 6.0 | 0.00 | 0.00 | 0.00 | 23 | 1011.6 |
| 20260506211515 | 83 | 269 | 1.0 | 4.0 | 0.00 | 0.00 | 0.00 | 22 | 1011.9 |
| 20260506210043 | 81 | 287 | 0.0 | 6.0 | 0.00 | 0.00 | 0.00 | 23 | 1012.0 |
| 20260506204540 | 81 | 293 | 1.0 | 7.0 | 0.00 | 0.00 | 0.00 | 24 | 1012.4 |
| 20260506203035 | 81 | 281 | 3.0 | 8.0 | 0.00 | 0.00 | 0.00 | 23 | 1012.5 |
| 20260506201533 | 81 | 281 | 0.0 | 6.0 | 0.00 | 0.00 | 0.00 | 25 | 1012.6 |
| 20260506200029 | 80 | 291 | 2.0 | 6.0 | 0.00 | 0.00 | 0.00 | 23 | 1012.7 |
| 20260506194534 | 78 | 279 | 3.0 | 8.0 | 0.00 | 0.00 | 0.00 | 25 | 1012.9 |
| 20260506193031 | 79 | 257 | 1.0 | 6.0 | 0.00 | 0.00 | 0.00 | 24 | 1013.1 |
| 20260506191524 | 79 | 98 | 0.0 | 6.0 | 0.00 | 0.00 | 0.00 | 28 | 1013.2 |
| 20260506190020 | 78 | 58 | 2.0 | 4.0 | 0.00 | 0.00 | 0.00 | 24 | 1013.3 |
| 20260506184523 | 78 | 261 | 2.0 | 5.0 | 0.00 | 0.00 | 0.00 | 26 | 1013.6 |
| 20260506183013 | 77 | 281 | 0.0 | 5.0 | 0.00 | 0.00 | 0.00 | 29 | 1013.8 |